{"data":{"norad_id":39240,"intl_designator":"2013-046B","name":"YAOGAN-17 01B","alt_names":[],"object_type":"PAYLOAD","status":"ACTIVE","operator":null,"country":"PRC","launch_date":"2013-09-01","launch_site_code":"JSC","launch_vehicle":null,"mission":null,"orbit_class":"UNKNOWN","rcs_meters":2.637,"size_class":null,"mass_kg":null,"dimensions":null,"purposes":[],"wikipedia_slug":null,"has_3d_model":false,"image_url":null,"decayed_at":null,"tle_current":{"epoch":"2026-05-25T05:36:56.729952Z","epoch_age_seconds":47990,"freshness":"FRESH","line1":"1 39240U 13046B   26145.23398993 -.00000183  00000+0 -89716-4 0  9994","line2":"2 39240  63.3851 150.0635 0424451  11.2867 349.7321 13.45468679625242","mean_motion":13.45468679,"eccentricity":0.0424451,"inclination_deg":63.3851,"raan_deg":150.0635,"arg_perigee_deg":11.2867,"mean_anomaly_deg":349.7321,"bstar":-8.9716e-5,"rev_number":62524,"period_min":107.02590275608,"perigee_km":772.0345673244,"apogee_km":1405.9193653495,"semimajor_km":7467.113966337,"source":"CELESTRAK","updated_at":"2026-05-25T13:37:55.373202Z"}}}